Other Public Products
Issued by NWS Grand Forks, ND

Home | Current Version | Previous Version | Graphics & Text | Print | Product List | Glossary On
Versions: 1 2 3 4 5 6 7 8 9 10 11 12 13 14 15 16 17 18 19 20 21 22 23 24 25 26 27 28 29 30 31 32 33 34 35 36 37 38 39 40 41 42 43 44 45 46 47 48 49 50
000
FPUS83 KFGF 270431
OPUFGF
PRAIRIE TO PINES WEATHER ROUNDUP
NATIONAL WEATHER SERVICE EASTERN NORTH DAKOTA/GRAND FORKS ND
1100 PM CDT TUE AUG 26 2014

 **SATELLITE DATA USED TO AUGMENT SKY COVER AT AUTOMATED STATIONS**
 *****  WEATHER ACROSS EASTERN NORTH DAKOTA  *****

CITY           SKY/WX    TMP DP  RH WIND       PRES   REMARKS
GRAND FORKS    PTCLDY    56  54  93 SW6       30.15R
GRAND FORKS AF CLEAR     54  53  99 SW6       30.15S
GRAND CITY NWS   N/A     55 N/A N/A SW2         N/A
BUXTON           N/A     57  56  99 SW5         N/A
DEVILS LAKE    CLEAR     55  46  71 SW7       30.15R
FARGO          MOCLDY    59  57  93 W3        30.18R
WAHPETON ARPT  CLOUDY    59  55  88 SW3       30.20R
$$

 *****  WEATHER ACROSS CENTRAL AND WESTERN NORTH DAKOTA  *****

CITY           SKY/WX    TMP DP  RH WIND       PRES   REMARKS
JAMESTOWN      PTCLDY    55  54  96 S3        30.19R
BISMARCK       CLOUDY    56  54  93 NE3       30.19R
MINOT          CLEAR     60  49  66 S8        30.14R
MINOT AFB      CLEAR     52  50  93 SW8       30.14R
GARRISON         N/A     55  53  93 S7        30.16R
WILLISTON      CLEAR     54  48  80 CALM      30.12R
DICKINSON      CLEAR     52  51  97 SE8       30.16R
HETTINGER      CLEAR     53  50  89 E3        30.19R
$$

 *****  OTHER OBSERVATIONS NORTHEAST NORTH DAKOTA  *****

CITY           SKY/WX    TMP DP  RH WIND       PRES   REMARKS
WALHALLA         N/A     54  54 100 S3        30.14S
LANGDON        FAIR      45  43  93 SW3       30.15S
CAVALIER       FAIR      54  50  87 S3        30.14R
GRAFTON        FAIR      52  50  93 SE5       30.14S
CANDO          FAIR      50  48  93 CALM      30.16S
FORT TOTTEN      N/A     53  51  91 SE2       29.95S
ROLLA          FAIR      46  46 100 SW5       30.17R
RUGBY          FAIR      55  50  82 S6        30.16R
 ***** THE ABOVE OBSERVATIONS ARE NON NWS ARE NOT QUALITY
        CONTROLLED AND MAY MIS-REPORT RAIN FOR SNOW...
$$

 *****  OTHER OBSERVATIONS SOUTHEAST NORTH DAKOTA *****

CITY           SKY/WX    TMP DP  RH WIND       PRES   REMARKS
COOPERSTOWN    NOT AVBL
VALLEY CITY    FAIR      54  54 100 W5        30.19S
OAKES            N/A     57  57 100 NE5       30.19R
GWINNER        CLOUDY    59  59 100 CALM      30.20R
BUFFALO          N/A     56  53  91 CALM        N/A
WYNDMERE       NOT AVBL
 ***** THE ABOVE OBSERVATIONS ARE NON NWS ARE NOT QUALITY
       CONTROLLED AND MAY MIS-REPORT RAIN FOR SNOW...
$$

  *****  WEATHER ACROSS NORTHERN MINNESOTA  *****

CITY           SKY/WX    TMP DP  RH WIND       PRES   REMARKS
FLAG ISLAND    CLEAR     54  46  76 SW8       30.15S
WARROAD        PTCLDY    46  43  87 CALM      30.18S
ROSEAU         PTCLDY    46  43  87 SE3       30.17S
HALLOCK        CLEAR     55  48  76 SE6       30.14S
THF RVR FALLS  PTCLDY    54  48  82 E6        30.17S
HALSTAD          N/A     56  54  93 S5          N/A
FOSSTON        MOCLDY    48  48 100 S3        30.19R
BAUDETTE       CLEAR     47  45  93 SW5       30.17R
WASKISH        PTCLDY    45  43  93 CALM      30.18S
CROOKSTON      PTCLDY    55  54  94 S6        30.17S
$$
  *****  WEATHER ACROSS CENTRAL AND WEST MINNESOTA  *****

CITY           SKY/WX    TMP DP  RH WIND       PRES   REMARKS
BEMIDJI        CLOUDY    52  51  97 CALM      30.19R
PARK RAPIDS    CLOUDY    58  55  90 CALM      30.19R
WADENA         LGT RAIN  57  55  94 CALM      30.20R
DETROIT LAKES  CLOUDY    59  55  88 CALM      30.20R
MOORHEAD       CLOUDY    61  61 100 CALM      30.20R
FERGUS FALLS   LGT RAIN  59  55  88 SW3       30.21R
ELBOW LAKE     HVY RAIN  58  57  95 CALM      30.19S
MORRIS MN      CLOUDY    61  57  88 NE3       30.18S
STAPLES        LGT RAIN  57  55  94 CALM      30.21R
WHEATON        CLOUDY    57  55  94 CALM      30.21R
$$
  *****  WEATHER ELSEWHERE ACROSS MINNESOTA  *****

CITY           SKY/WX    TMP DP  RH WIND       PRES   REMARKS
DULUTH         MOCLDY    57  48  72 N6        30.16S
INTRNTL FALLS  MOCLDY    44  43  96 CALM      30.16R
ELY            CLOUDY    54  46  76 W3        30.17R
CLOQUET        CLOUDY    55  48  76 CALM      30.17S
BRAINERD       CLOUDY    58  53  84 CALM      30.19R
HIBBING        LGT RAIN  52  49  89 CALM      30.17F
ALEXANDRIA     CLOUDY    60  57  89 SW5       30.20R
SAINT CLOUD    CLOUDY    63  58  83 W3        30.19R
MINNEAPOLIS    CLOUDY    68  54  60 N3        30.17R
$$

  *****  WEATHER ACROSS SOUTH DAKOTA  *****

CITY           SKY/WX    TMP DP  RH WIND       PRES   REMARKS
SIOUX FALLS    MOCLDY    65  56  72 SE6       30.18R
BROOKINGS      NOT AVBL
WATERTOWN      CLOUDY    58  55  90 E6        30.19R
HURON          CLEAR     59  57  93 E6        30.16R
SISSETON         N/A     60  58  92 CALM      30.18R
ABERDEEN       CLOUDY    59  56  89 CALM      30.18R
MITCHELL       PTCLDY    62  59  90 SE5       30.16R
PIERRE         PTCLDY    59  55  87 NE12      30.14R
MOBRIDGE       CLOUDY    59  56  89 E3        30.15R
RAPID CITY     PTCLDY    63  55  75 SE8       30.16R
$$

  *****  SOME WEATHER IN NEARBY STATES *****

CITY           SKY/WX    TMP DP  RH WIND       PRES   REMARKS
GLASGOW MT     CLEAR     59  52  77 E10       30.07R
GREAT FALLS MT CLEAR     61  44  53 S9        30.06R
CHEYENNE WY    MOCLDY    59  51  75 E7        30.26R
SCOTTSBLUFF NE MOCLDY    66  61  84 NE7       30.12F
OMAHA NE       MOCLDY    72  65  78 E6        30.12S
DES MOINES IA  MOCLDY    73  64  73 E5        30.13R
DAVENPORT IA   CLEAR     67  62  84 NE6       30.12S
CHICAGO IL     MOCLDY    72  64  76 N6        30.11S
EAU CLAIRE WI  MOCLDY    62  57  83 CALM      30.15R
LA CROSSE WI   CLOUDY    66  59  78 N3        30.14S
$$

  *****  SOME NATIONAL WEATHER *****

CITY           SKY/WX    TMP DP  RH WIND       PRES   REMARKS
LA GUARDIA NY  PTCLDY    74  62  66 SW8       30.08F
RALEIGH NC     PTCLDY    68  62  81 CALM      30.09S
ATLANTA GA     PTCLDY    73  58  59 E8        30.09F
NEW ORLEANS LA PTCLDY    82  72  71 CALM      29.98S
OKLAHOMA CITY  PTCLDY    83  65  54 SE9       30.06R
ALBUQUERQUE NM LGT RAIN  69  56  62 E7        30.24R
SALT LAKE CITY LGT RAIN  60  55  83 S10       30.17R
LOS ANGELES CA CLEAR     69  61  75 W7        29.97R
BOISE ID       CLEAR     74  47  38 CALM      30.06R
SEATTLE WA     CLEAR     77  52  41 N7        29.99R
$$

*** WEATHER ACROSS MANITOBA...SASKATCHEWAN AND ONTARIO ***
                ***ONTARIO***

CITY           SKY/WX    TMP DP  RH WIND       PRES   REMARKS
GERALDTON      CLOUDY    55  48  76 NW7       30.06S
THUNDER BAY    CLOUDY    57  50  77 W6        30.13R
SIOUX LOOKOUT  CLOUDY    48  48 100 CALM      30.12R
TORONTO        MOCLDY    72  68  88 N17       30.00R
BIG TROUT LK   LGT RAIN  48  46  93 N3        30.06S
PICKLE LAKE    NOT AVBL
DRYDEN         CLOUDY    54  50  87 W5        30.13S
KENORA         MOCLDY    54  48  82 W3        30.15R
$$
                *** MANITOBA***

CITY           SKY/WX    TMP DP  RH WIND       PRES   REMARKS
BRANDON        CLEAR     52  48  87 SW3       30.12S
DAUPHIN        CLEAR     52  48  87 SW5       30.08R
ISLAND LAKE    PTCLDY   N/A N/A N/A CALM        N/A
PILOT MOUND      N/A     46  43  87 S3          N/A
THE PAS        CLEAR     55  48  76 S12       29.96
THOMPSON       CLEAR     48  46  93 S6        30.00F
WINNIPEG       CLEAR     52  46  82 S7        30.14R
LYNN LAKE      CLOUDY    55  45  67 MISG      29.87S
CHURCHILL      PTCLDY    50  41  71 S10       29.94S
GILLAM         CLEAR     43  41  93 S7        30.04F
$$
                ***SASKATCHEWAN***

CITY           SKY/WX    TMP DP  RH WIND       PRES   REMARKS
ESTEVAN        PTCLDY    55  48  76 SE8       30.12R
KINDERSLEY     PTCLDY    59  48  67 S7        29.94R
LLOYDMINSTER   CLEAR     61  52  72 S3        29.88S
PRINCE ALBERT  MOCLDY    63  52  67 S10       29.90S
REGINA         CLEAR     59  50  72 S12       30.05S
YORKTON        CLEAR     57  50  77 S8        30.06S


USA.gov is the U.S. government's official web portal to all federal, state and local government web resources and services.